Location: Habighorst
(52.7089°N, 10.2278°E)
Time: 06:35:47
(UTC+00:00)

Meteor 1-11 Rocket - Pass Details

Date: 13 January 2026
Orbit: 830 x 914 km, 81.2° (Epoch: 18 February)

Event Time Altitude Azimuth Distance (km) Brightness Sun altitude
Exits shadow 05:13:29 29° 254° (WSW) 1,569 4.6 -19.0°
Maximum altitude 05:15:29 38° 294° (WNW) 1,336 4.2 -18.7°
Drops below altitude 10° 05:20:50 10° 2° (N) 2,534 6.1 -17.9°
Sets 05:23:27 0° 10° (N) 3,462 6.9 -17.6°
